Arbor Vitae, WI

10:09 AM CST on January 17, 2018 (GMT -0600)
Lakeland-Lee Memorial

Weather History for KARV - October, 2012

Change the Weather History Date:

Wednesday, October 24, 2012

  Actual Average Record
Temperature  
Mean Temperature 58 °F -  
Max Temperature 64 °F 52 °F 76 °F (1963)
Min Temperature 53 °F 33 °F 15 °F (1917)
Degree Days  
Heating Degree Days 6    
Growing Degree Days 8 (Base 50)    
Moisture  
Dew Point 59 °F    
Average Humidity 95    
Maximum Humidity 100    
Minimum Humidity 88    
Precipitation  
Precipitation 0.34 in - - ()
Sea Level Pressure  
Sea Level Pressure 29.81 in    
Wind  
Wind Speed 6 mph (SSE)    
Max Wind Speed 13 mph    
Max Gust Speed 20 mph    
Visibility 2 miles    
Events Fog , Rain , Thunderstorm    
Averages and records for this station are not official NWS values.
T = Trace of Precipitation, MM = Missing Value Source: NWS Daily Summary

Daily Weather History Graph

Daily Weather History Graph

Search for Another Location

Airport or City:

Trip Planner

Search our weather history database for the weather conditions in past years. The results will help you decide how hot, cold, wet, or windy it might be!

Date:

Astronomy

Oct. 24, 2012 Rise Set
Actual Time 7:28 AM CDT 5:56 PM CDT
Civil Twilight 6:58 AM CDT 6:27 PM CDT
Nautical Twilight 6:23 AM CDT 7:02 PM CDT
Astronomical Twilight 5:48 AM CDT 7:36 PM CDT
Moon 3:25 PM CDT (10/24) 2:08 AM CDT (10/24)
Length of Visible Light 11h 29m
Length of Day
10h 27m
Waxing Gibbous, 76% of the Moon is Illuminated
Oct 24
Waxing Gibbous
Oct 29
Full
Nov 6
Last Quarter
Nov 13
New
Nov 20
First Quarter

Hourly Weather History & Observations

Time (CDT) Temp. Dew Point Humidity Pressure Visibility Wind Dir Wind Speed Gust Speed Precip Events Conditions
12:15 AM 57.2 °F 55.4 °F 94% 29.84 in 1.2 mi SSE 5.8 mph - N/A   Overcast
12:35 AM 59.0 °F 57.2 °F 94% 29.84 in 1.0 mi SSE 5.8 mph - N/A Rain Light Rain
12:55 AM 59.0 °F 57.2 °F 94% 29.84 in 1.0 mi SSE 8.1 mph - N/A Rain Light Rain
1:15 AM 59.0 °F 57.2 °F 94% 29.84 in 1.0 mi South 5.8 mph - N/A   Overcast
1:35 AM 59.0 °F 57.2 °F 94% 29.84 in 1.0 mi South 5.8 mph - N/A   Overcast
1:55 AM 59.0 °F 57.2 °F 94% 29.84 in 1.0 mi South 8.1 mph - N/A   Overcast
2:15 AM 59.0 °F 57.2 °F 94% 29.84 in 0.8 mi South 8.1 mph - N/A   Overcast
2:35 AM 59.0 °F 57.2 °F 94% 29.84 in 0.8 mi South 6.9 mph - N/A   Overcast
2:55 AM 59.0 °F 57.2 °F 94% 29.84 in 0.8 mi South 6.9 mph - N/A   Overcast
3:15 AM 59.0 °F 57.2 °F 94% 29.84 in 0.5 mi South 4.6 mph - N/A Fog Fog
3:35 AM 59.0 °F 57.2 °F 94% 29.84 in 0.8 mi South 4.6 mph - N/A   Overcast
3:55 AM 59.0 °F 57.2 °F 94% 29.84 in 0.5 mi South 6.9 mph - N/A Fog Fog
4:15 AM 59.0 °F 57.2 °F 94% 29.84 in 0.5 mi South 4.6 mph - N/A Fog Fog
4:35 AM 59.0 °F 57.2 °F 94% 29.84 in 0.5 mi SSE 5.8 mph - N/A Fog Fog
4:55 AM 59.0 °F 57.2 °F 94% 29.84 in 0.5 mi SSE 4.6 mph - N/A Fog Fog
5:15 AM 59.0 °F 57.2 °F 94% 29.84 in 0.5 mi SE 3.5 mph - N/A Fog Fog
5:35 AM 59.0 °F 57.2 °F 94% 29.84 in 0.2 mi SSE 3.5 mph - N/A Fog Fog
5:55 AM 59.0 °F 57.2 °F 94% 29.85 in 0.5 mi SSE 4.6 mph - N/A Fog Fog
6:15 AM 59.0 °F 57.2 °F 94% 29.85 in 0.5 mi SSE 3.5 mph - N/A Fog Fog
6:35 AM 59.0 °F 57.2 °F 94% 29.86 in 0.5 mi Calm Calm - N/A Rain Light Rain
6:55 AM 59.0 °F 57.2 °F 94% 29.86 in 0.5 mi SE 3.5 mph - N/A Rain Light Rain
7:15 AM 59.0 °F 57.2 °F 94% 29.86 in 0.8 mi SSE 3.5 mph - N/A Rain Light Rain
7:35 AM 59.0 °F 57.2 °F 94% 29.85 in 1.0 mi SSE 3.5 mph - N/A   Light Drizzle
7:55 AM 59.0 °F 57.2 °F 94% 29.86 in 1.2 mi South 4.6 mph - N/A Rain Rain
8:15 AM 59.0 °F 57.2 °F 94% 29.88 in 1.0 mi South 4.6 mph - N/A   Overcast
8:55 AM 60.8 °F 59.0 °F 94% 29.88 in 1.0 mi SSE 3.5 mph - N/A   Overcast
9:15 AM 60.8 °F 60.8 °F 100% 29.87 in 0.8 mi Calm Calm - N/A   Overcast
9:35 AM 60.8 °F 60.8 °F 100% 29.87 in 0.8 mi SSE 4.6 mph - N/A   Overcast
9:55 AM 60.8 °F 60.8 °F 100% 29.87 in 0.8 mi SSE 4.6 mph - N/A   Overcast
10:15 AM 60.8 °F 60.8 °F 100% 29.87 in 0.8 mi SSE 3.5 mph - N/A   Overcast
10:35 AM 60.8 °F 60.8 °F 100% 29.87 in 0.8 mi SE 5.8 mph - N/A   Overcast
11:15 AM 60.8 °F 60.8 °F 100% 29.87 in 0.2 mi SE 6.9 mph - N/A Fog Fog
11:35 AM 60.8 °F 60.8 °F 100% 29.86 in 0.5 mi SSE 5.8 mph - N/A Fog Fog
11:55 AM 60.8 °F 60.8 °F 100% 29.85 in 0.8 mi SE 5.8 mph - N/A   Overcast
12:15 PM 60.8 °F 60.8 °F 100% 29.84 in 1.2 mi SSE 8.1 mph - N/A   Overcast
12:35 PM 60.8 °F 60.8 °F 100% 29.84 in 1.8 mi SE 5.8 mph - N/A   Overcast
12:55 PM 60.8 °F 60.8 °F 100% 29.84 in 2.0 mi SE 4.6 mph - N/A   Overcast
1:15 PM 60.8 °F 60.8 °F 100% 29.84 in 1.8 mi SE 3.5 mph - N/A   Overcast
1:35 PM 60.8 °F 60.8 °F 100% 29.82 in 2.5 mi SE 4.6 mph - N/A   Overcast
1:55 PM 60.8 °F 60.8 °F 100% 29.81 in 2.5 mi SE 6.9 mph - N/A   Overcast
2:15 PM 60.8 °F 60.8 °F 100% 29.81 in 3.0 mi SE 4.6 mph - N/A   Overcast
2:35 PM 62.6 °F 60.8 °F 94% 29.81 in 4.0 mi SSE 6.9 mph - N/A   Overcast
2:55 PM 62.6 °F 60.8 °F 94% 29.80 in 4.0 mi SSE 6.9 mph - N/A   Overcast
3:15 PM 62.6 °F 60.8 °F 94% 29.79 in 5.0 mi SE 6.9 mph - N/A   Overcast
3:35 PM 62.6 °F 60.8 °F 94% 29.79 in 5.0 mi SE 9.2 mph - N/A   Overcast
4:15 PM 62.6 °F 60.8 °F 94% 29.79 in 4.0 mi SSE 6.9 mph - N/A   Overcast
4:35 PM 62.6 °F 60.8 °F 94% 29.79 in 4.0 mi SE 4.6 mph - N/A   Overcast
4:55 PM 62.6 °F 60.8 °F 94% 29.78 in 4.0 mi SE 6.9 mph - N/A   Overcast
5:15 PM 62.6 °F 60.8 °F 94% 29.77 in 4.0 mi SSE 8.1 mph - N/A   Overcast
5:35 PM 62.6 °F 60.8 °F 94% 29.77 in 3.0 mi SSE 8.1 mph - N/A   Overcast
5:55 PM 62.6 °F 60.8 °F 94% 29.74 in 3.0 mi SSE 10.4 mph - N/A   Overcast
6:15 PM 62.6 °F 60.8 °F 94% 29.73 in 3.0 mi SSE 12.7 mph - N/A   Overcast
6:35 PM 62.6 °F 60.8 °F 94% 29.73 in 3.0 mi SSE 10.4 mph 16.1 mph N/A   Overcast
6:55 PM 62.6 °F 60.8 °F 94% 29.72 in 3.0 mi SSE 10.4 mph - N/A Thunderstorm Overcast
7:35 PM 62.6 °F 62.6 °F 100% 29.72 in 3.0 mi SSE 11.5 mph 16.1 mph N/A   Overcast
8:15 PM 62.6 °F 60.8 °F 94% 29.70 in 4.0 mi SSE 12.7 mph 18.4 mph N/A Rain Light Rain
8:35 PM 62.6 °F 60.8 °F 94% 29.70 in 4.0 mi SSE 11.5 mph - N/A Rain , Thunderstorm Light Thunderstorms and Rain
8:55 PM 62.6 °F 60.8 °F 94% 29.67 in 4.0 mi SSE 10.4 mph 19.6 mph N/A   Overcast
9:15 PM 62.6 °F 60.8 °F 94% 29.69 in 3.0 mi South 11.5 mph 17.3 mph 0.10 in Rain , Thunderstorm Light Thunderstorms and Rain
9:55 PM 64.4 °F 62.6 °F 94% 29.69 in 5.0 mi SSW 10.4 mph 18.4 mph 0.13 in Rain Rain
10:15 PM 62.6 °F 59.0 °F 88% 29.71 in 2.5 mi West 3.5 mph 10.4 mph 0.21 in Rain , Thunderstorm Heavy Thunderstorms and Rain
10:35 PM 60.8 °F 59.0 °F 94% 29.71 in 10.0 mi WNW 4.6 mph - 0.21 in   Mostly Cloudy
11:15 PM 55.4 °F 53.6 °F 94% 29.73 in 10.0 mi NW 5.8 mph - N/A   Overcast
11:35 PM 53.6 °F 51.8 °F 94% 29.72 in 10.0 mi NNW 6.9 mph - N/A Thunderstorm Overcast
11:55 PM 53.6 °F 51.8 °F 94% 29.72 in 10.0 mi North 4.6 mph - N/A   Overcast